Location: Aydie
(43.5695°N, 0.1043°W)
Time: 05:43:56
(UTC+00:00)

USA 215 - Pass Details

Date: 17 November 2025
Orbit: 1101 x 1106 km, 123.0° (Epoch: 02 December)

Event Time Altitude Azimuth Distance (km) Brightness Sun altitude
Rises 18:28:29 0° 149° (SSE) 3,907 5.9 -20.7°
Reaches altitude 10° 18:31:04 10° 155° (SSE) 2,953 5.3 -21.2°
Maximum altitude 18:37:19 48° 228° (SW) 1,414 4.1 -22.3°
Drops below altitude 10° 18:43:37 10° 302° (WNW) 2,970 6.2 -23.5°
Sets 18:46:14 0° 308° (NW) 3,931 6.9 -23.9°
